| time (UTC) | temp F | wind direction | speed MPH | gust MPH | rain 1hr in | rain 24hr in | rain mn in | humidity % | barometer mb |
| 20260905010004 | 81 | 0 | 0.0 | 0.0 | 0.01 | 0.03 | 0.03 | 86 | 1015.9 |
| 20260905005005 | 82 | 0 | 0.0 | 0.0 | 0.01 | 0.03 | 0.03 | 85 | 1015.7 |
| 20260905004025 | 82 | 0 | 0.0 | 0.0 | 0.00 | 0.02 | 0.02 | 83 | 1015.8 |
| 20260905003004 | 82 | 0 | 0.0 | 0.0 | 0.00 | 0.02 | 0.02 | 82 | 1015.5 |
| 20260905002004 | 83 | 0 | 0.0 | 0.0 | 0.00 | 0.02 | 0.02 | 82 | 1015.3 |
| 20260905001004 | 83 | 0 | 0.0 | 0.0 | 0.00 | 0.02 | 0.02 | 81 | 1015.3 |
| 20260905000004 | 83 | 0 | 0.0 | 0.0 | 0.00 | 0.02 | 0.02 | 81 | 1015.2 |
| 20260904235004 | 84 | 200 | 0.0 | 1.0 | 0.00 | 0.02 | 0.02 | 80 | 1014.9 |
| 20260904234025 | 84 | 0 | 0.0 | 0.0 | 0.00 | 0.02 | 0.02 | 79 | 1014.5 |
| 20260904233004 | 85 | 0 | 0.0 | 0.0 | 0.00 | 0.02 | 0.02 | 79 | 1014.6 |
| 20260904232004 | 85 | 0 | 0.0 | 0.0 | 0.00 | 0.02 | 0.02 | 78 | 1014.7 |
| 20260904231004 | 85 | 0 | 0.0 | 0.0 | 0.00 | 0.02 | 0.02 | 78 | 1014.5 |
| 20260904230005 | 85 | 0 | 0.0 | 0.0 | 0.00 | 0.02 | 0.02 | 77 | 1014.6 |
| 20260904225004 | 85 | 0 | 0.0 | 0.0 | 0.00 | 0.02 | 0.02 | 77 | 1014.3 |
| 20260904224025 | 85 | 200 | 1.0 | 3.0 | 0.00 | 0.02 | 0.02 | 76 | 1014.2 |
| 20260904223004 | 86 | 197 | 1.0 | 4.0 | 0.00 | 0.02 | 0.02 | 75 | 1014.1 |
| 20260904222004 | 87 | 181 | 2.0 | 6.0 | 0.00 | 0.02 | 0.02 | 72 | 1014.1 |
| 20260904221004 | 89 | 172 | 3.0 | 7.0 | 0.00 | 0.02 | 0.02 | 72 | 1013.7 |
| 20260904220025 | 90 | 178 | 2.0 | 4.0 | 0.00 | 0.02 | 0.02 | 71 | 1013.6 |
| 20260904215005 | 92 | 174 | 1.0 | 4.0 | 0.00 | 0.03 | 0.02 | 69 | 1013.8 |
| 20260904214004 | 92 | 213 | 2.0 | 10.0 | 0.00 | 0.03 | 0.02 | 66 | 1014.1 |
| 20260904213004 | 92 | 199 | 2.0 | 8.0 | 0.00 | 0.03 | 0.02 | 67 | 1014.1 |
| 20260904212004 | 93 | 192 | 1.0 | 4.0 | 0.00 | 0.05 | 0.02 | 66 | 1013.8 |
| 20260904211004 | 93 | 196 | 1.0 | 5.0 | 0.00 | 0.06 | 0.02 | 65 | 1013.7 |
| 20260904210004 | 93 | 230 | 1.0 | 6.0 | 0.00 | 0.06 | 0.02 | 65 | 1013.7 |
| 20260904205025 | 92 | 219 | 1.0 | 7.0 | 0.00 | 0.07 | 0.02 | 69 | 1013.7 |
| 20260904204005 | 91 | 221 | 1.0 | 4.0 | 0.00 | 0.11 | 0.02 | 68 | 1013.9 |
| 20260904203005 | 91 | 231 | 2.0 | 7.0 | 0.00 | 0.14 | 0.02 | 69 | 1014.2 |
| 20260904202005 | 91 | 224 | 3.0 | 10.0 | 0.00 | 0.16 | 0.02 | 68 | 1014.1 |
| 20260904201025 | 90 | 224 | 4.0 | 10.0 | 0.00 | 0.18 | 0.02 | 70 | 1014.2 |
| 20260904200025 | 89 | 225 | 3.0 | 10.0 | 0.00 | 0.20 | 0.02 | 71 | 1014.1 |
| 20260904195004 | 88 | 228 | 4.0 | 10.0 | 0.00 | 0.25 | 0.02 | 73 | 1014.4 |
| 20260904194004 | 88 | 242 | 4.0 | 9.0 | 0.00 | 0.39 | 0.02 | 72 | 1014.7 |
| 20260904193026 | 88 | 234 | 5.0 | 10.0 | 0.00 | 0.45 | 0.02 | 72 | 1015.0 |
| 20260904192004 | 88 | 231 | 5.0 | 11.0 | 0.00 | 0.49 | 0.02 | 74 | 1015.2 |
| 20260904191004 | 88 | 258 | 6.0 | 15.0 | 0.00 | 0.49 | 0.02 | 72 | 1015.2 |
| 20260904190004 | 88 | 204 | 2.0 | 10.0 | 0.00 | 0.49 | 0.02 | 73 | 1015.2 |
| 20260904185004 | 90 | 0 | 0.0 | 0.0 | 0.00 | 0.49 | 0.02 | 71 | 1015.1 |
| 20260904184004 | 91 | 0 | 0.0 | 0.0 | 0.00 | 0.49 | 0.02 | 72 | 1014.9 |
| 20260904183004 | 91 | 55 | 0.0 | 1.0 | 0.00 | 0.49 | 0.02 | 72 | 1015.1 |
| 20260904182025 | 92 | 0 | 0.0 | 0.0 | 0.00 | 0.49 | 0.02 | 73 | 1015.2 |
| 20260904181004 | 91 | 0 | 0.0 | 0.0 | 0.02 | 0.49 | 0.02 | 75 | 1015.4 |
| 20260904180004 | 90 | 0 | 0.0 | 0.0 | 0.02 | 0.49 | 0.02 | 77 | 1015.5 |
| 20260904175005 | 90 | 0 | 0.0 | 0.0 | 0.02 | 0.49 | 0.02 | 77 | 1015.6 |
| 20260904174004 | 89 | 0 | 0.0 | 0.0 | 0.02 | 0.49 | 0.02 | 80 | 1015.9 |
| 20260904173025 | 89 | 0 | 0.0 | 0.0 | 0.02 | 0.49 | 0.02 | 80 | 1015.8 |
| 20260904172004 | 89 | 0 | 0.0 | 0.0 | 0.02 | 0.49 | 0.02 | 78 | 1015.9 |
| 20260904171025 | 90 | 0 | 0.0 | 0.0 | 0.00 | 0.47 | 0.00 | 73 | 1016.1 |
| 20260904170004 | 91 | 0 | 0.0 | 0.0 | 0.00 | 0.47 | 0.00 | 71 | 1016.1 |
| 20260904165004 | 91 | 0 | 0.0 | 0.0 | 0.00 | 0.47 | 0.00 | 72 | 1016.3 |
| 20260904164004 | 92 | 0 | 0.0 | 0.0 | 0.00 | 0.47 | 0.00 | 70 | 1016.3 |
| 20260904163004 | 92 | 228 | 0.0 | 1.0 | 0.00 | 0.47 | 0.00 | 72 | 1016.5 |
| 20260904162004 | 92 | 0 | 0.0 | 0.0 | 0.00 | 0.47 | 0.00 | 70 | 1016.5 |
| 20260904161004 | 92 | 62 | 0.0 | 1.0 | 0.00 | 0.47 | 0.00 | 72 | 1016.6 |
| 20260904160004 | 92 | 205 | 0.0 | 2.0 | 0.00 | 0.47 | 0.00 | 71 | 1016.8 |
| 20260904155004 | 91 | 195 | 2.0 | 5.0 | 0.00 | 0.47 | 0.00 | 73 | 1016.9 |
| 20260904154004 | 90 | 207 | 2.0 | 6.0 | 0.00 | 0.47 | 0.00 | 73 | 1017.0 |
| 20260904153004 | 89 | 210 | 1.0 | 5.0 | 0.00 | 0.47 | 0.00 | 72 | 1017.0 |
| 20260904152004 | 90 | 235 | 0.0 | 3.0 | 0.00 | 0.47 | 0.00 | 73 | 1016.9 |
| 20260904151025 | 90 | 192 | 0.0 | 3.0 | 0.00 | 0.47 | 0.00 | 76 | 1016.8 |
| 20260904150004 | 89 | 181 | 1.0 | 6.0 | 0.00 | 0.47 | 0.00 | 74 | 1016.7 |
| 20260904145004 | 89 | 187 | 1.0 | 6.0 | 0.00 | 0.47 | 0.00 | 77 | 1016.6 |
| 20260904144004 | 89 | 207 | 0.0 | 5.0 | 0.00 | 0.47 | 0.00 | 79 | 1016.7 |
| 20260904143004 | 89 | 244 | 0.0 | 5.0 | 0.00 | 0.47 | 0.00 | 77 | 1016.4 |
| 20260904142004 | 88 | 0 | 0.0 | 0.0 | 0.00 | 0.47 | 0.00 | 80 | 1016.4 |
| 20260904141025 | 87 | 0 | 0.0 | 0.0 | 0.00 | 0.47 | 0.00 | 83 | 1016.5 |
| 20260904140004 | 86 | 0 | 0.0 | 0.0 | 0.00 | 0.47 | 0.00 | 84 | 1016.4 |
| 20260904135004 | 85 | 0 | 0.0 | 0.0 | 0.00 | 0.47 | 0.00 | 84 | 1016.3 |
| 20260904134004 | 84 | 221 | 0.0 | 1.0 | 0.00 | 0.47 | 0.00 | 86 | 1016.4 |
| 20260904133004 | 83 | 217 | 1.0 | 5.0 | 0.00 | 0.47 | 0.00 | 86 | 1016.2 |
| 20260904132004 | 83 | 210 | 0.0 | 6.0 | 0.00 | 0.47 | 0.00 | 89 | 1016.1 |
| 20260904131004 | 82 | 0 | 0.0 | 0.0 | 0.00 | 0.47 | 0.00 | 93 | 1016.1 |
| 20260904130004 | 81 | 208 | 0.0 | 2.0 | 0.00 | 0.47 | 0.00 | 93 | 1016.0 |
| 20260904125004 | 80 | 207 | 0.0 | 3.0 | 0.00 | 0.47 | 0.00 | 94 | 1015.9 |
| 20260904124004 | 79 | 0 | 0.0 | 0.0 | 0.00 | 0.47 | 0.00 | 94 | 1015.7 |
| 20260904123004 | 78 | 0 | 0.0 | 0.0 | 0.00 | 0.47 | 0.00 | 95 | 1015.7 |
| 20260904122004 | 78 | 0 | 0.0 | 0.0 | 0.00 | 0.47 | 0.00 | 95 | 1015.7 |
| 20260904121004 | 78 | 0 | 0.0 | 0.0 | 0.00 | 0.47 | 0.00 | 95 | 1015.6 |
| 20260904120004 | 77 | 0 | 0.0 | 0.0 | 0.00 | 0.47 | 0.00 | 95 | 1015.5 |
| 20260904115004 | 76 | 0 | 0.0 | 0.0 | 0.00 | 0.47 | 0.00 | 95 | 1015.6 |
| 20260904114004 | 76 | 0 | 0.0 | 0.0 | 0.00 | 0.47 | 0.00 | 95 | 1015.3 |
| 20260904113025 | 76 | 0 | 0.0 | 0.0 | 0.00 | 0.47 | 0.00 | 94 | 1015.2 |
| 20260904112004 | 76 | 0 | 0.0 | 0.0 | 0.00 | 0.47 | 0.00 | 94 | 1015.2 |
| 20260904111004 | 76 | 0 | 0.0 | 0.0 | 0.00 | 0.47 | 0.00 | 94 | 1015.2 |
| 20260904110004 | 76 | 0 | 0.0 | 0.0 | 0.00 | 0.47 | 0.00 | 94 | 1015.2 |
| 20260904105004 | 76 | 0 | 0.0 | 0.0 | 0.00 | 0.47 | 0.00 | 94 | 1015.1 |
| 20260904104004 | 76 | 0 | 0.0 | 0.0 | 0.00 | 0.47 | 0.00 | 94 | 1014.8 |
| 20260904103004 | 76 | 0 | 0.0 | 0.0 | 0.00 | 0.47 | 0.00 | 94 | 1014.9 |
| 20260904102004 | 76 | 0 | 0.0 | 0.0 | 0.00 | 0.47 | 0.00 | 94 | 1014.7 |
| 20260904101004 | 77 | 0 | 0.0 | 0.0 | 0.00 | 0.47 | 0.00 | 94 | 1014.6 |
| 20260904100025 | 77 | 0 | 0.0 | 0.0 | 0.00 | 0.47 | 0.00 | 94 | 1014.6 |
| 20260904095004 | 77 | 0 | 0.0 | 0.0 | 0.00 | 0.47 | 0.00 | 94 | 1014.5 |
| 20260904094004 | 77 | 0 | 0.0 | 0.0 | 0.00 | 0.47 | 0.00 | 94 | 1014.4 |
| 20260904093004 | 77 | 0 | 0.0 | 0.0 | 0.00 | 0.47 | 0.00 | 94 | 1014.3 |
| 20260904092004 | 77 | 0 | 0.0 | 0.0 | 0.00 | 0.47 | 0.00 | 94 | 1014.3 |
| 20260904091004 | 77 | 0 | 0.0 | 0.0 | 0.00 | 0.47 | 0.00 | 94 | 1014.3 |
| 20260904090004 | 77 | 0 | 0.0 | 0.0 | 0.00 | 0.47 | 0.00 | 94 | 1014.2 |
| 20260904085004 | 77 | 0 | 0.0 | 0.0 | 0.00 | 0.47 | 0.00 | 94 | 1014.0 |
| 20260904084025 | 77 | 0 | 0.0 | 0.0 | 0.00 | 0.47 | 0.00 | 94 | 1014.1 |
| 20260904083025 | 77 | 0 | 0.0 | 0.0 | 0.00 | 0.47 | 0.00 | 94 | 1014.2 |
| 20260904082004 | 78 | 0 | 0.0 | 0.0 | 0.00 | 0.47 | 0.00 | 94 | 1014.2 |
| 20260904081004 | 78 | 0 | 0.0 | 0.0 | 0.00 | 0.47 | 0.00 | 94 | 1014.2 |
| 20260904080025 | 78 | 0 | 0.0 | 0.0 | 0.00 | 0.47 | 0.00 | 94 | 1014.2 |
| 20260904075004 | 78 | 0 | 0.0 | 0.0 | 0.00 | 0.47 | 0.00 | 94 | 1014.1 |
| 20260904074004 | 78 | 0 | 0.0 | 0.0 | 0.00 | 0.47 | 0.00 | 94 | 1014.0 |
| 20260904073025 | 78 | 0 | 0.0 | 0.0 | 0.00 | 0.47 | 0.00 | 94 | 1013.9 |
| 20260904072004 | 78 | 0 | 0.0 | 0.0 | 0.00 | 0.47 | 0.00 | 94 | 1014.0 |
| 20260904071004 | 78 | 0 | 0.0 | 0.0 | 0.00 | 0.47 | 0.00 | 94 | 1013.9 |
| 20260904070004 | 78 | 0 | 0.0 | 0.0 | 0.00 | 0.47 | 0.00 | 94 | 1014.2 |
| 20260904065004 | 78 | 0 | 0.0 | 0.0 | 0.00 | 0.47 | 0.00 | 94 | 1014.2 |
| 20260904064004 | 78 | 0 | 0.0 | 0.0 | 0.00 | 0.47 | 0.00 | 94 | 1014.3 |
| 20260904063003 | 78 | 0 | 0.0 | 0.0 | 0.00 | 0.47 | 0.00 | 94 | 1014.2 |
| 20260904062004 | 78 | 0 | 0.0 | 0.0 | 0.00 | 0.47 | 0.00 | 94 | 1014.4 |
| 20260904061004 | 78 | 0 | 0.0 | 0.0 | 0.00 | 0.47 | 0.00 | 93 | 1014.6 |
| 20260904060025 | 78 | 0 | 0.0 | 0.0 | 0.00 | 0.47 | 0.00 | 93 | 1014.6 |
| 20260904055004 | 78 | 0 | 0.0 | 0.0 | 0.00 | 0.47 | 0.00 | 93 | 1014.7 |
| 20260904054004 | 78 | 0 | 0.0 | 0.0 | 0.00 | 0.47 | 0.00 | 93 | 1014.9 |
| 20260904053004 | 78 | 0 | 0.0 | 0.0 | 0.00 | 0.47 | 0.00 | 93 | 1014.9 |
| 20260904052004 | 78 | 0 | 0.0 | 0.0 | 0.00 | 0.47 | 0.00 | 93 | 1014.8 |
| 20260904051004 | 78 | 0 | 0.0 | 0.0 | 0.00 | 0.47 | 0.00 | 93 | 1015.0 |
| 20260904050004 | 78 | 0 | 0.0 | 0.0 | 0.00 | 0.47 | 0.00 | 93 | 1015.1 |
| 20260904045004 | 78 | 0 | 0.0 | 0.0 | 0.00 | 0.47 | 0.00 | 93 | 1015.2 |
| 20260904044004 | 78 | 0 | 0.0 | 0.0 | 0.00 | 0.47 | 0.00 | 93 | 1015.1 |
| 20260904043004 | 78 | 0 | 0.0 | 0.0 | 0.00 | 0.47 | 0.00 | 93 | 1015.2 |
| 20260904042004 | 78 | 0 | 0.0 | 0.0 | 0.00 | 0.47 | 0.00 | 93 | 1014.9 |
| 20260904041004 | 78 | 0 | 0.0 | 0.0 | 0.00 | 0.47 | 0.00 | 93 | 1015.0 |
| 20260904040004 | 78 | 0 | 0.0 | 0.0 | 0.00 | 0.47 | 0.00 | 93 | 1015.0 |
| 20260904035004 | 78 | 0 | 0.0 | 0.0 | 0.00 | 0.47 | 0.47 | 93 | 1015.0 |
| 20260904034003 | 78 | 0 | 0.0 | 0.0 | 0.00 | 0.47 | 0.47 | 93 | 1015.0 |
| 20260904033004 | 78 | 0 | 0.0 | 0.0 | 0.00 | 0.47 | 0.47 | 93 | 1014.9 |
| 20260904032003 | 78 | 0 | 0.0 | 0.0 | 0.00 | 0.47 | 0.47 | 93 | 1014.9 |
| 20260904031004 | 78 | 0 | 0.0 | 0.0 | 0.00 | 0.47 | 0.47 | 93 | 1015.0 |
| 20260904030004 | 78 | 0 | 0.0 | 0.0 | 0.00 | 0.47 | 0.47 | 93 | 1014.8 |
| 20260904025004 | 78 | 0 | 0.0 | 0.0 | 0.00 | 0.47 | 0.47 | 93 | 1014.8 |
| 20260904024004 | 78 | 0 | 0.0 | 0.0 | 0.00 | 0.47 | 0.47 | 93 | 1014.9 |
| 20260904023004 | 78 | 0 | 0.0 | 0.0 | 0.00 | 0.47 | 0.47 | 93 | 1015.1 |
| 20260904022004 | 78 | 0 | 0.0 | 0.0 | 0.00 | 0.47 | 0.47 | 93 | 1015.0 |
| 20260904021025 | 78 | 0 | 0.0 | 0.0 | 0.00 | 0.47 | 0.47 | 93 | 1015.2 |
| 20260904020004 | 78 | 0 | 0.0 | 0.0 | 0.00 | 0.47 | 0.47 | 93 | 1015.2 |
| 20260904015004 | 78 | 0 | 0.0 | 0.0 | 0.00 | 0.47 | 0.47 | 93 | 1015.2 |
| 20260904014004 | 78 | 109 | 0.0 | 1.0 | 0.00 | 0.47 | 0.47 | 93 | 1015.2 |
| 20260904013025 | 78 | 69 | 0.0 | 2.0 | 0.00 | 0.47 | 0.47 | 92 | 1015.1 |
| 20260904012003 | 78 | 81 | 0.0 | 1.0 | 0.00 | 0.47 | 0.47 | 93 | 1014.8 |
| 20260904011003 | 78 | 0 | 0.0 | 0.0 | 0.00 | 0.47 | 0.47 | 92 | 1014.8 |